Wind_Speed
11 4 4 5 6 7 9 12 12 11 9 9 8 5 12 7 4 6 5 9 12 7 4 6 4 4 7 7 10 15 15 11 10 13 20 22 24 26 24 25 27 23 22 24 22 21 22 22 21 23 23 23 24 24 24 23 23 24 24 24 21 19 20 21 21 21 21 21 20 19 19 19 18 16 14 15 13 11 15 16 15 16 16 16 16 15
10 4 5 7 8 10 11 12 12 11 11 12 7 6 11 8 6 7 8 10 8 4 2 4 4 4 4 4 6 7 6 5 4 4 14 20 23 26 23 25 28 23 23 27 23 22 24 23 23 23 22 23 25 25 24 23 24 25 25 23 19 19 21 21 22 22 21 20 20 21 22 21 19 16 13 13 11 12 15 14 14 15 15 15 14 13
6 4 7 9 9 10 11 11 10 11 11 9 5 3 6 7 8 5 7 10 7 3 1 4 4 3 1 1 3 6 3 3 4 5 4 10 17 24 25 26 28 24 24 28 25 24 26 25 25 23 22 24 26 26 25 23 22 24 25 22 19 19 21 21 22 22 20 19 18 20 21 21 20 18 14 11 10 12 14 14 14 14 14 13 12 12
4 6 10 11 9 9 10 11 10 10 8 6 5 1 5 9 9 5 5 8 5 2 5 6 3 1 3 1 3 3 4 8 7 8 7 6 8 14 21 28 29 24 26 29 25 25 27 27 26 24 23 26 26 25 25 23 22 23 24 23 19 19 21 22 22 20 20 19 17 18 17 18 20 19 17 14 11 10 13 14 13 13 13 12 11 10
5 8 14 12 10 9 9 10 10 8 4 5 7 3 7 10 7 7 9 9 4 2 7 8 2 2 2 4 2 3 7 10 10 10 11 11 10 8 12 26 31 25 27 30 26 26 28 27 28 26 24 26 26 24 24 24 23 22 23 23 20 20 22 22 21 19 19 20 19 18 17 18 19 19 18 17 15 11 13 15 13 12 12 12 11 10
7 10 13 13 10 9 8 8 9 7 4 4 7 6 9 14 10 11 13 10 4 2 7 9 3 1 3 6 7 5 4 7 8 9 13 15 15 11 9 21 30 26 27 30 27 27 27 27 28 27 25 26 25 24 23 23 23 22 23 22 20 21 22 23 22 20 21 21 20 20 20 21 21 20 19 18 17 13 13 14 13 13 12 12 11 10
3 9 7 8 10 11 9 7 7 7 4 3 6 5 10 18 14 15 16 10 4 3 9 10 4 1 2 5 8 8 5 7 6 7 13 17 18 15 13 16 27 27 27 28 26 26 27 27 28 27 26 26 25 24 23 22 22 23 23 22 21 21 22 23 24 23 22 21 20 20 21 21 20 20 19 17 15 11 11 12 12 13 13 12 12 10
4 8 9 7 7 9 7 5 7 6 4 4 4 2 13 20 17 18 16 9 5 4 7 11 5 3 2 4 8 10 9 8 7 7 11 16 19 19 16 15 22 27 27 28 27 26 27 28 28 28 27 26 25 23 23 23 22 21 22 22 22 23 23 23 24 23 21 20 20 20 21 19 18 19 18 17 16 12 10 11 10 12 13 12 11 10
6 7 7 9 7 4 4 6 7 6 4 4 6 4 6 14 16 19 14 6 5 6 5 9 7 2 1 3 7 10 10 10 12 12 11 16 20 21 19 17 19 24 27 29 28 27 28 29 28 28 27 26 24 23 24 26 23 20 20 21 23 24 23 23 22 21 20 19 19 21 21 19 18 18 18 18 17 15 14 12 10 12 13 12 10 9
2 5 9 9 6 3 5 5 4 4 3 3 5 9 7 5 7 11 9 4 5 5 4 11 11 3 1 3 7 8 8 11 13 12 13 18 23 23 22 21 20 22 27 29 28 28 28 29 28 28 27 26 24 24 25 26 24 21 20 21 23 24 22 21 21 20 19 20 20 21 22 20 19 19 18 19 18 17 18 14 12 13 13 13 12 10
7 10 10 4 2 2 5 6 2 4 5 4 4 8 7 4 1 1 3 4 4 1 5 14 16 7 2 3 7 8 10 13 13 10 12 18 23 26 24 25 24 23 26 30 29 27 28 29 28 28 28 26 25 25 26 27 25 23 21 21 23 24 21 21 21 20 20 20 20 21 22 20 18 19 19 20 19 19 20 17 13 13 13 14 13 11
9 6 2 3 1 4 7 7 4 6 6 3 4 4 3 3 3 4 2 3 3 3 4 11 18 11 3 3 9 11 11 13 15 13 14 17 22 27 27 28 27 23 25 31 30 27 27 29 29 29 28 27 27 28 27 28 27 25 23 22 23 24 22 22 22 21 20 20 20 20 21 20 18 18 19 19 19 21 22 18 14 13 13 14 14 11
5 2 2 7 5 3 5 5 4 5 5 5 5 1 3 3 2 2 2 2 1 4 7 7 12 8 3 4 11 16 12 11 17 19 20 22 25 29 30 30 28 23 23 30 31 28 28 29 29 30 29 27 29 29 28 29 29 26 25 24 25 24 22 22 22 22 21 21 21 21 20 20 18 18 18 18 19 19 19 17 15 14 13 13 13 11
2 3 5 7 6 7 7 3 3 5 3 5 4 3 2 0 1 2 2 2 4 5 9 9 7 4 3 2 8 16 14 13 19 24 27 29 30 32 33 31 30 25 22 27 32 31 29 30 30 30 29 29 30 30 29 29 28 27 25 25 26 25 23 23 22 22 22 21 22 22 21 20 18 17 17 17 17 17 16 15 14 13 12 13 12 11
4 3 4 2 5 9 8 7 7 4 1 3 4 3 3 2 2 3 2 2 4 3 6 8 5 3 2 2 5 13 15 15 19 23 27 32 33 33 32 29 29 28 23 24 31 33 31 31 31 31 30 30 30 30 29 29 29 28 25 24 27 26 24 23 23 23 23 22 22 22 22 21 18 17 18 17 16 16 16 14 12 12 13 12 12 11
4 4 6 6 7 13 9 10 8 5 4 4 4 4 2 4 2 3 4 4 3 1 3 2 1 1 2 1 2 11 13 14 18 20 24 28 31 32 31 29 29 31 27 23 28 33 32 31 32 32 31 30 29 29 31 31 30 29 27 24 25 27 25 24 24 24 23 23 22 21 23 23 19 17 18 18 16 15 15 14 12 12 12 12 12 12
2 5 9 7 8 12 8 8 6 4 4 3 3 5 5 5 3 3 4 6 3 1 2 3 2 1 1 3 1 8 10 10 14 17 21 26 29 29 30 32 33 34 32 27 27 30 32 33 33 33 32 32 30 30 31 31 30 30 28 25 24 26 26 24 24 24 23 23 22 21 22 24 22 19 17 16 15 14 14 13 12 12 12 12 13 13
2 5 9 8 6 7 9 9 7 7 8 3 1 2 4 4 3 2 1 4 4 2 2 5 7 3 2 0 2 7 9 10 11 13 18 23 26 28 30 32 35 37 35 31 28 26 30 34 36 34 33 34 33 32 30 28 28 29 27 25 23 25 27 25 24 24 23 23 23 22 22 23 23 21 18 17 16 15 14 13 12 13 13 13 13 13
3 4 7 8 6 0 6 5 3 7 10 4 2 4 1 2 2 1 1 2 2 2 2 4 5 3 1 0 4 7 9 10 11 11 14 18 23 26 28 31 34 35 35 34 30 26 25 31 37 36 34 35 35 33 30 28 28 29 27 24 22 24 26 26 25 24 23 23 22 22 22 22 21 20 18 17 16 15 15 14 14 14 14 14 14 13
4 2 5 7 12 9 2 2 3 4 7 3 3 6 3 3 4 4 3 2 2 2 0 3 3 1 2 4 3 6 7 9 10 10 10 14 21 23 24 27 31 34 35 34 32 29 24 28 36 37 35 36 35 32 29 29 30 29 27 25 23 23 26 26 25 25 24 23 22 21 22 22 21 20 19 17 15 15 16 16 15 14 14 14 14 13
4 3 4 6 11 8 4 4 5 5 6 3 1 4 5 2 2 4 3 3 3 3 2 2 0 1 1 5 4 1 3 5 7 8 8 13 20 22 23 26 28 31 34 32 31 29 24 25 34 37 35 35 34 30 29 29 30 30 27 25 23 24 26 27 26 25 24 23 22 21 21 22 22 21 20 19 17 16 16 16 16 15 14 14 14 14
3 2 3 4 6 6 6 9 11 9 9 6 2 4 6 3 1 2 2 3 3 3 3 4 3 1 2 4 5 5 3 5 6 4 4 12 17 18 21 24 26 28 30 31 30 29 24 23 29 34 34 34 33 31 30 30 30 29 27 24 23 23 26 27 26 25 24 23 23 22 20 20 21 21 21 20 19 19 17 16 16 15 14 14 15 15
4 1 2 4 4 5 8 13 14 12 11 9 5 5 6 4 3 3 2 5 4 4 5 3 5 1 2 3 4 5 5 9 12 11 5 5 8 9 12 15 21 25 24 24 25 26 25 22 24 30 31 32 34 33 31 31 30 28 26 24 23 23 24 25 26 24 23 22 22 22 19 19 20 21 22 22 20 20 18 16 16 16 15 14 13 14
7 1 3 4 4 4 8 11 13 10 8 7 7 7 5 4 4 3 3 3 1 2 3 2 3 1 2 4 5 6 8 10 13 14 11 7 5 3 5 3 7 16 19 21 22 25 28 27 27 29 28 27 32 33 32 32 30 27 26 25 24 25 23 23 25 25 22 21 21 21 19 18 19 19 21 23 21 20 18 16 15 16 16 15 14 14
5 2 2 3 4 5 6 8 9 9 8 5 7 11 8 6 9 9 5 1 4 4 3 5 1 2 1 4 7 6 7 8 12 14 12 13 13 7 4 1 4 13 19 23 23 22 26 31 32 32 29 28 32 33 32 33 31 28 28 27 26 26 23 22 25 26 23 20 21 22 20 19 18 17 18 20 20 19 17 16 15 15 15 15 15 14
2 2 2 2 2 2 2 3 4 5 6 5 8 11 8 9 12 8 3 3 4 4 5 5 2 0 1 3 6 5 4 5 8 9 9 13 14 9 6 8 10 13 17 21 21 19 22 29 33 32 29 30 33 33 32 32 31 30 30 29 28 27 24 23 24 25 23 21 21 22 21 19 18 18 17 17 19 19 18 18 17 17 16 16 14 13
1 2 2 2 3 3 5 5 7 7 6 7 11 12 9 11 14 9 3 3 2 4 5 4 7 5 1 3 5 5 4 4 4 4 7 11 13 9 5 8 10 10 12 17 20 20 22 26 31 32 29 30 33 34 33 32 32 31 30 29 30 29 27 26 25 22 21 22 22 21 21 19 18 18 17 16 17 17 17 17 18 19 19 17 16 15
1 2 5 5 5 6 8 8 9 9 7 9 12 12 9 9 11 9 7 8 5 6 4 2 6 8 4 2 4 6 3 1 4 8 10 11 9 7 4 2 6 8 9 12 15 20 22 22 24 26 27 29 31 31 31 32 32 30 29 30 32 32 29 28 27 24 21 22 22 21 21 21 20 19 18 17 17 17 17 17 17 19 20 19 18 17
2 1 5 6 8 8 6 7 8 6 6 9 11 11 11 10 10 8 9 12 11 8 3 3 5 10 6 2 4 6 5 4 9 11 10 9 7 5 7 8 6 7 6 9 14 20 21 18 17 17 20 26 30 30 31 33 32 31 29 29 31 32 30 29 29 28 24 22 22 23 23 23 23 21 19 18 18 18 19 19 18 19 20 20 19 18
3 2 4 6 9 10 9 9 6 5 3 7 9 10 13 13 14 12 11 12 11 11 8 5 9 12 8 4 4 8 10 10 12 11 10 12 12 8 6 7 8 5 2 5 10 19 21 17 14 13 15 19 24 27 28 28 30 30 30 29 28 30 31 29 28 29 27 24 24 25 23 21 22 22 21 19 19 20 22 22 20 19 20 19 17 17
2 1 4 4 5 6 9 10 7 4 5 3 5 10 13 13 14 14 12 11 10 10 11 10 8 7 6 8 7 4 10 14 14 14 12 10 10 8 6 4 6 4 1 1 1 8 15 14 13 14 14 14 18 22 23 22 22 22 24 26 26 27 29 29 28 28 27 25 25 24 22 18 19 23 24 22 20 20 22 23 22 20 21 19 17 17
1 1 4 4 3 4 8 8 8 6 2 3 6 10 11 10 10 10 9 9 8 8 9 10 6 3 4 7 11 11 11 11 11 14 13 7 7 7 7 7 5 6 7 6 5 4 3 10 12 11 11 14 17 21 23 21 18 15 17 21 22 23 25 27 27 26 26 26 25 23 23 22 22 26 27 26 24 23 23 24 24 23 22 20 18 19
1 1 1 2 2 4 7 8 7 4 3 4 2 4 7 8 7 8 8 9 9 7 5 5 2 2 3 6 10 11 11 10 9 10 11 10 9 11 12 14 15 15 16 14 11 11 8 7 10 6 6 10 13 16 18 18 14 10 11 15 17 18 20 20 19 18 18 20 20 21 23 26 26 28 28 27 27 26 26 27 28 27 25 23 21 19
1 2 0 2 1 3 7 8 6 3 4 1 3 1 5 5 8 10 9 9 10 7 4 3 2 2 5 8 9 11 12 11 14 15 11 8 9 13 15 16 16 15 17 18 17 17 16 10 5 5 5 6 8 9 12 14 14 11 10 11 14 16 17 17 15 14 14 16 17 18 21 24 26 27 25 25 26 27 27 29 29 29 29 28 26 23
2 3 2 2 1 2 5 6 4 3 1 1 4 4 5 7 11 12 10 10 11 9 7 6 6 6 8 10 11 12 14 15 19 22 20 15 14 18 17 16 14 13 15 17 17 17 19 16 9 6 6 5 4 6 8 11 13 13 11 11 13 14 16 18 19 19 20 21 21 21 22 24 25 25 24 23 25 26 27 28 29 29 30 30 29 27
2 2 2 2 1 0 2 3 1 2 3 4 6 8 9 7 7 7 8 10 11 9 8 7 9 10 9 8 9 11 13 17 21 23 23 20 19 22 23 20 17 16 17 19 19 18 19 19 16 13 12 11 8 6 4 3 4 6 6 6 6 6 9 14 18 20 21 22 22 22 23 24 25 25 25 25 26 26 27 28 29 29 29 29 29 28
4 2 1 1 2 0 2 1 2 2 3 5 5 7 9 8 5 3 6 6 10 12 11 9 9 12 11 7 6 6 8 12 15 19 21 19 19 22 23 22 20 20 19 19 20 20 19 19 20 19 19 19 17 16 14 11 8 6 6 5 3 3 5 10 14 16 17 17 19 19 19 20 21 22 24 26 26 26 27 29 30 30 30 29 28 28
5 2 2 2 1 0 1 0 2 3 1 3 4 9 12 12 11 6 6 2 9 14 16 11 8 10 12 9 6 4 5 6 6 10 17 18 19 20 22 22 22 22 19 17 16 16 16 16 16 16 17 20 20 18 17 17 16 15 14 14 12 11 10 8 8 9 9 10 12 15 15 16 18 19 19 20 21 22 22 24 26 28 28 29 29 29
3 4 4 3 1 2 2 1 2 2 2 4 6 10 12 15 13 8 5 2 7 12 16 12 9 9 10 10 9 8 7 5 2 4 11 17 17 18 21 24 24 22 20 19 17 15 14 15 15 14 14 17 18 18 18 20 20 19 18 17 15 15 14 11 8 8 7 5 3 5 8 8 10 12 14 15 16 18 19 20 21 22 23 24 25 26
1 1 3 3 3 4 0 1 2 2 1 3 5 8 12 14 11 6 4 1 6 11 14 11 9 8 9 11 10 7 4 4 7 8 11 16 17 17 18 21 22 20 18 17 17 16 16 16 16 16 16 17 17 18 18 18 19 19 18 15 13 14 13 12 10 10 10 9 9 6 4 2 1 3 6 9 10 12 15 17 18 18 18 19 20 21
2 1 1 0 2 3 3 3 2 2 1 5 6 11 15 11 5 5 1 3 4 10 11 9 6 7 9 10 9 6 4 9 16 18 16 17 18 18 18 18 18 17 15 14 14 15 15 16 15 15 15 14 14 15 15 14 15 18 18 16 14 13 12 11 9 9 9 10 11 11 10 8 6 3 1 3 4 5 6 8 9 11 12 13 14 15
2 2 2 2 3 2 3 3 2 2 3 8 8 15 16 6 1 4 2 2 7 9 8 7 5 7 10 11 11 12 14 17 20 20 16 14 16 17 17 17 17 16 14 13 12 11 12 13 12 11 10 9 8 10 12 12 14 18 19 19 17 15 12 10 9 8 8 9 11 13 13 13 11 8 5 3 2 4 4 3 3 4 5 6 7 8
1 2 2 2 2 1 2 4 2 1 5 9 9 10 11 5 4 4 7 11 11 8 7 7 5 7 12 13 13 15 19 19 19 19 17 15 14 14 14 16 17 17 15 13 12 10 9 10 11 12 11 9 7 7 7 7 9 12 14 17 17 15 13 12 10 9 9 9 11 11 12 14 13 11 10 11 9 6 6 6 5 5 5 5 5 5
1 1 1 0 2 1 2 2 2 4 7 13 11 6 6 9 10 10 12 13 9 7 7 7 6 7 10 13 14 14 17 17 16 16 16 15 15 14 14 15 16 16 16 15 14 12 11 10 11 13 13 12 10 8 6 4 5 6 9 11 13 13 14 14 13 12 10 9 9 9 9 11 12 10 9 10 11 11 11 11 11 12 12 11 10 9
1 1 2 2 2 3 3 3 6 10 12 13 14 14 15 16 15 14 15 14 10 7 6 6 7 7 8 11 13 14 14 14 14 14 14 15 15 15 15 16 16 16 15 15 14 13 12 12 12 12 13 13 11 9 8 6 5 5 6 8 8 9 11 13 14 14 12 9 8 9 9 8 8 7 7 8 8 9 10 11 10 12 13 13 12 11
2 2 2 3 2 5 7 8 11 14 14 13 15 17 17 16 14 14 15 14 11 7 6 6 7 7 8 10 11 12 13 13 14 13 13 14 15 15 15 16 15 14 13 12 10 9 9 8 8 8 10 12 12 12 11 8 6 5 5 6 6 5 5 6 9 10 11 10 10 9 8 6 5 5 5 5 6 6 7 9 8 8 10 11 11 12
3 3 2 2 4 4 4 4 9 13 12 12 13 14 14 15 14 13 12 12 10 8 8 8 7 6 7 8 9 11 13 14 14 14 14 14 13 13 14 13 12 9 9 8 7 6 5 4 3 5 6 7 9 9 10 10 9 8 7 5 4 4 4 3 4 6 8 9 10 9 8 7 5 4 3 3 2 2 4 5 5 6 7 8 9 8
0 1 1 3 4 4 3 4 11 17 14 10 11 12 12 12 12 11 11 11 10 9 8 8 8 6 4 5 6 9 13 15 14 14 14 13 12 13 12 12 11 10 8 7 5 4 4 3 2 3 4 5 5 5 5 6 6 7 7 5 3 3 3 3 4 4 5 7 9 9 7 6 4 3 5 4 1 1 1 1 1 3 5 5 7 7
4 2 4 5 4 4 4 5 10 14 12 9 11 11 10 10 9 9 9 9 10 9 7 7 8 6 4 5 6 7 10 12 14 14 13 12 12 12 11 11 11 10 8 5 3 2 2 2 2 3 3 3 3 3 3 3 2 3 4 5 4 4 4 3 4 4 4 6 9 9 6 3 2 1 4 5 3 3 4 6 3 2 5 3 3 5
3 0 2 6 4 2 3 4 6 7 6 7 9 9 8 8 8 8 9 10 9 8 7 7 7 5 5 7 7 6 6 8 11 14 12 11 12 13 11 11 11 10 9 6 4 4 4 3 2 2 2 2 3 3 3 2 1 2 3 2 3 5 6 6 5 5 6 8 9 9 8 5 3 1 2 3 4 6 3 1 2 1 5 8 7 4
4 1 2 5 4 4 6 8 9 9 8 8 8 7 7 7 7 8 9 8 8 7 7 7 6 5 5 6 5 5 6 6 8 12 13 12 12 11 9 9 9 9 9 7 6 6 6 5 3 2 2 1 1 2 2 2 1 2 2 3 4 6 6 6 5 5 8 11 11 10 8 6 6 4 3 3 2 5 7 6 7 6 2 4 8 8
Wind_Direction
200 206 208 208 229 228 223 227 239 259 268 269 269 152 143 150 155 184 165 151 159 152 163 169 148 160 174 183 190 200 211 221 229 192 164 165 163 169 184 167 165 185 176 167 174 173 167 165 165 160 154 156 156 157 164 166 166 167 172 175 179 177 169 167 165 160 155 153 154 156 154 153 161 170 163 166 185 183 165 165 166 164 163 160 159 159
194 209 225 217 224 232 237 232 232 249 260 269 280 130 146 154 156 175 144 141 155 123 141 167 145 182 187 194 189 190 215 222 269 231 174 176 167 171 185 165 166 186 173 165 172 169 163 164 168 162 154 159 161 161 166 169 170 172 177 182 183 176 171 169 166 160 155 157 160 159 159 156 161 170 167 173 183 171 167 170 169 167 165 164 166 166
184 226 237 229 227 228 244 250 242 244 247 259 275 157 150 135 122 119 119 137 143 100 172 185 169 180 123 342 14 42 348 258 258 296 236 194 172 176 184 166 168 186 172 165 170 167 164 165 168 163 160 167 166 164 167 171 175 177 180 186 185 174 171 169 164 160 156 160 164 161 161 162 165 165 164 180 179 162 167 169 167 170 167 167 170 169
185 210 223 238 239 223 238 255 258 257 250 252 268 238 126 137 131 117 140 150 143 132 171 170 163 47 81 83 25 61 265 269 261 275 282 244 198 193 188 168 170 185 173 165 169 168 164 166 168 165 167 172 170 170 172 175 179 180 181 187 185 173 171 169 161 161 161 164 168 167 166 165 166 163 162 183 192 173 171 171 169 172 170 172 173 171
233 212 199 219 243 234 231 239 248 258 253 237 245 231 134 147 140 125 146 151 135 138 151 139 93 336 137 150 172 185 228 264 272 271 263 235 220 233 203 172 172 183 174 166 170 169 165 167 168 168 172 174 173 175 179 181 183 182 182 186 183 172 171 167 160 166 170 169 172 173 170 165 165 168 169 184 199 189 178 176 172 171 174 174 173 176
249 241 199 195 224 239 236 232 239 244 255 253 243 229 146 138 132 129 139 142 134 163 162 146 113 281 188 165 178 181 207 239 254 266 259 234 217 233 229 179 174 181 175 169 174 172 167 169 169 169 176 176 173 176 182 187 186 184 184 186 181 172 171 165 163 175 178 172 174 172 172 169 168 174 177 186 198 194 181 177 173 171 174 174 174 179
238 269 241 198 207 220 229 236 237 229 237 238 230 225 140 132 139 146 149 152 155 179 178 175 158 113 189 189 177 170 192 217 221 246 248 235 223 231 240 195 179 180 174 172 180 177 172 174 171 170 177 178 175 176 181 187 187 185 185 185 179 172 173 171 172 182 182 177 175 171 173 176 172 175 179 185 193 190 177 174 173 171 174 175 172 179
195 258 281 273 230 208 211 229 236 226 226 239 246 177 131 137 148 159 168 178 165 138 165 188 191 105 182 213 170 165 186 203 204 229 242 232 225 229 236 213 188 182 177 178 184 182 177 178 175 173 179 181 178 177 180 185 189 189 187 185 179 175 179 181 181 183 183 182 178 173 177 179 175 176 176 181 187 180 173 179 177 176 180 177 168 179
184 214 256 267 258 228 219 224 222 219 226 263 299 325 145 156 163 168 180 193 151 116 136 195 202 138 159 183 155 167 186 198 200 208 220 220 221 225 227 217 201 189 181 182 187 186 182 181 179 177 180 182 182 180 181 187 192 192 192 188 181 180 184 187 185 183 183 185 181 178 181 181 179 180 176 179 183 174 178 192 187 180 182 175 170 190
251 290 280 256 229 216 248 245 206 203 249 274 289 291 275 226 181 172 184 182 145 132 166 196 197 176 163 167 156 171 198 206 200 198 205 208 211 216 216 211 208 200 188 184 188 190 186 185 183 180 181 184 184 183 183 190 194 193 195 190 183 185 187 187 185 182 183 185 183 182 184 183 181 182 180 181 182 176 182 195 189 181 180 174 179 199
275 287 290 275 221 303 313 299 230 213 259 309 299 282 286 287 312 156 185 140 123 203 203 189 189 182 167 188 178 183 203 201 190 187 196 202 205 207 209 208 210 209 193 183 187 192 187 185 184 180 183 186 185 183 184 191 195 194 197 192 186 187 187 185 183 183 184 183 185 186 187 189 185 182 182 183 183 180 185 193 188 181 181 178 186 202
257 268 281 122 166 313 316 292 246 213 220 248 279 289 341 335 360 7 348 64 74 283 254 187 183 185 183 201 204 210 211 193 184 187 189 192 198 200 204 208 211 211 195 184 187 192 188 184 183 181 184 187 186 183 184 191 194 195 198 195 189 189 187 185 185 184 183 182 185 186 186 188 188 185 184 183 183 182 186 192 188 184 184 184 192 203
247 259 193 137 140 250 289 299 289 263 216 202 233 223 36 337 349 6 341 13 150 236 264 213 176 184 230 206 199 209 212 190 188 191 186 186 191 196 202 207 210 207 192 186 188 190 190 187 185 183 184 188 187 181 182 191 192 193 199 197 192 191 188 187 188 187 184 182 183 184 182 183 185 187 187 184 183 182 184 188 188 187 186 188 197 203
287 249 197 139 135 207 237 261 259 262 202 190 218 142 115 270 270 266 217 218 229 226 250 231 167 162 260 230 191 199 201 189 190 191 187 186 189 194 199 202 208 207 192 187 189 191 193 191 188 186 186 190 189 182 182 188 191 194 198 196 192 191 188 187 189 188 185 183 183 183 185 185 185 187 187 185 185 185 186 189 191 191 191 194 198 202
318 291 218 188 153 174 210 237 242 280 344 233 236 139 149 189 189 244 211 214 246 258 256 231 179 154 206 233 194 185 184 179 183 189 186 186 190 195 199 201 206 210 202 189 189 193 195 193 192 190 189 191 190 186 186 190 193 196 198 196 193 190 188 188 189 189 187 184 185 186 186 188 187 185 185 188 190 190 191 195 195 193 197 201 199 201
325 316 292 276 190 167 200 234 239 280 309 262 219 130 169 216 195 249 265 267 253 290 293 220 132 90 171 274 140 152 167 172 172 179 179 183 189 191 197 204 207 211 210 195 188 194 197 195 193 191 190 191 190 188 190 193 195 198 200 199 195 191 189 188 188 190 189 186 188 189 186 187 189 187 186 189 191 192 193 197 199 196 200 202 201 203
358 306 308 295 211 177 193 232 226 220 256 266 184 159 200 225 250 266 274 303 304 253 245 132 90 359 67 360 50 146 163 167 162 170 175 182 188 189 195 203 206 211 212 200 190 195 199 197 195 194 195 193 190 189 191 195 198 200 202 200 198 193 191 191 190 190 191 189 190 192 189 188 190 191 190 186 187 189 192 196 198 199 201 202 204 206
32 288 298 300 248 172 177 228 245 230 241 260 151 192 211 220 289 293 284 327 328 277 242 131 132 166 156 320 232 169 162 164 163 170 176 180 185 189 195 200 204 209 209 202 197 198 199 197 195 196 197 194 190 189 190 194 197 199 202 202 201 197 192 192 192 191 192 192 194 195 194 192 192 195 193 187 187 188 191 194 194 197 202 202 203 207
354 298 292 311 331 44 181 211 264 262 260 269 358 322 275 165 260 233 154 285 279 283 325 75 108 140 111 182 202 182 163 159 164 170 174 179 184 189 194 198 201 204 205 204 205 203 199 198 196 194 194 191 188 188 191 195 196 197 200 201 202 200 196 194 193 192 194 195 196 197 198 197 196 196 193 191 193 192 192 197 199 202 207 203 202 208
341 325 291 326 350 342 304 66 49 303 293 312 343 312 275 184 195 186 177 203 216 247 313 31 6 350 348 326 247 196 174 157 164 172 174 179 183 186 189 194 197 199 201 204 206 205 200 195 194 192 191 190 187 187 192 196 196 195 197 199 201 201 198 196 195 195 195 196 199 199 199 200 200 198 193 192 198 197 194 201 209 211 211 208 207 212
7 10 329 332 344 339 347 6 344 329 322 292 219 269 266 262 184 181 204 198 199 245 184 124 287 223 326 327 334 311 173 153 158 166 168 178 183 188 191 193 196 198 201 203 204 206 203 193 190 191 192 190 186 188 194 195 193 193 194 197 202 201 198 196 196 197 198 197 199 200 200 199 200 201 195 190 200 206 202 208 215 216 213 212 212 214
14 360 338 322 327 329 339 332 319 319 313 286 210 222 244 261 193 174 254 233 203 235 216 145 140 174 336 335 344 357 23 43 48 73 160 180 181 186 191 194 197 198 200 204 206 208 205 193 186 187 190 189 185 189 194 192 189 190 191 196 201 201 198 196 194 198 201 198 197 201 203 200 200 203 197 190 199 210 212 214 218 217 213 213 214 214
352 293 316 312 306 318 327 320 309 305 308 305 300 255 228 235 231 160 183 235 219 233 235 154 122 162 333 345 329 335 18 40 38 32 39 162 171 177 179 187 197 199 196 196 202 207 203 191 181 181 184 186 186 190 192 188 186 189 192 196 199 199 199 195 192 196 201 199 197 199 204 204 201 203 200 196 200 210 211 210 212 212 209 215 223 223
350 328 341 322 300 320 334 324 313 319 335 332 315 294 256 256 276 237 210 225 182 280 260 106 91 274 328 332 314 335 12 37 44 36 38 53 57 130 156 144 183 193 196 197 203 207 202 196 188 182 183 187 189 190 190 186 186 191 195 196 196 197 200 195 190 196 202 201 197 197 203 208 207 205 203 200 202 208 210 208 210 211 209 218 231 232
343 316 1 346 326 345 349 336 331 345 1 352 314 310 306 322 319 294 276 19 41 1 38 91 95 278 334 320 318 350 18 35 38 31 37 45 41 64 136 168 175 184 197 203 207 208 202 198 195 187 187 193 193 190 188 187 188 192 194 194 193 196 199 193 191 199 206 203 197 196 202 207 207 206 206 202 201 205 209 211 217 222 219 221 230 233
324 298 3 15 346 341 305 296 308 318 330 315 309 321 341 7 353 323 299 64 53 13 36 86 133 187 40 330 327 351 24 39 36 31 44 54 54 73 143 182 172 172 185 190 194 200 198 197 196 190 187 192 193 190 187 188 190 191 192 192 191 195 196 191 193 203 209 205 198 196 201 205 204 206 208 205 204 206 208 210 217 228 232 231 233 235
310 300 286 238 222 217 207 224 252 262 285 306 312 328 359 15 3 353 17 51 99 84 46 85 132 126 67 334 322 326 353 23 22 23 43 53 62 83 148 177 152 145 177 189 194 199 195 194 197 195 192 192 193 192 191 192 194 194 194 194 192 193 193 191 193 200 203 202 198 197 200 202 203 207 212 211 207 208 211 212 215 225 234 239 239 237
114 294 278 258 241 229 210 212 243 270 304 315 312 327 356 11 358 359 23 21 38 74 35 343 130 123 135 217 278 294 300 47 30 23 38 46 51 62 61 90 124 132 169 187 187 188 187 189 194 195 195 194 192 191 191 192 194 195 196 195 194 193 193 193 194 195 194 196 200 201 201 201 201 205 211 214 212 211 213 216 219 223 231 238 242 241
105 285 308 315 302 289 265 238 238 258 307 313 308 327 352 2 355 0 31 35 43 68 51 326 49 74 90 183 256 273 292 30 34 17 27 51 48 33 30 28 58 103 157 191 189 185 183 185 189 188 186 189 191 194 196 196 196 196 195 197 197 196 195 195 196 198 196 196 201 203 202 203 204 205 205 209 213 213 214 216 218 221 226 232 238 244
81 323 326 317 305 307 308 294 259 211 239 295 308 339 356 7 17 22 33 42 51 67 77 60 46 55 60 26 320 284 306 3 32 17 19 52 57 44 27 8 18 56 145 209 198 191 187 180 174 173 171 173 178 184 190 192 195 197 198 199 199 198 197 196 198 201 201 200 203 205 204 202 203 206 205 206 211 215 215 217 217 219 223 223 227 234
117 334 331 313 304 303 299 298 287 230 199 253 334 2 2 13 35 35 25 28 39 52 69 73 54 40 46 49 50 9 346 4 17 9 12 54 77 76 74 36 356 1 351 344 140 189 198 189 166 162 168 166 161 166 173 179 183 188 193 195 195 197 199 200 202 204 206 208 213 217 220 215 207 207 208 208 213 217 218 219 221 223 226 223 220 221
178 314 331 332 341 304 289 289 282 264 194 94 31 16 6 13 49 55 37 31 35 45 60 64 54 345 354 54 83 78 49 29 6 346 344 15 66 78 77 77 70 57 49 45 60 81 184 201 187 177 182 178 166 167 176 183 184 183 187 189 190 195 200 204 207 208 210 214 217 221 226 227 220 215 214 213 214 220 222 222 223 224 226 225 222 220
267 323 332 321 330 293 295 302 295 287 103 96 25 24 24 18 47 72 64 48 42 49 62 61 85 244 348 48 83 80 63 49 23 354 335 348 38 68 73 76 85 85 77 74 73 69 82 177 197 193 185 179 170 171 181 190 197 205 202 195 196 202 205 207 210 211 212 214 215 216 220 224 224 222 222 219 218 221 225 226 226 226 225 224 223 222
324 345 292 237 258 289 302 314 328 13 89 155 267 84 78 51 57 66 59 48 44 52 90 113 140 125 58 60 75 76 68 52 38 36 24 10 51 74 74 70 72 75 78 78 73 68 71 89 126 115 116 157 184 195 199 205 218 235 230 211 211 214 214 217 223 229 231 227 220 215 216 222 225 226 228 227 224 225 227 229 230 229 228 227 226 225
26 353 323 274 242 300 318 337 4 26 55 297 323 14 53 76 87 81 59 42 40 42 54 67 75 85 82 74 73 77 73 56 46 50 54 58 64 64 64 66 64 61 64 66 68 69 66 67 79 91 87 101 174 207 209 209 220 230 226 213 213 213 210 215 223 230 234 235 232 226 222 225 228 230 230 229 228 228 230 232 233 233 232 231 230 229
58 2 331 309 282 237 6 10 14 248 308 351 11 10 18 42 78 82 56 29 20 28 39 45 57 70 77 73 73 84 79 59 48 50 59 73 78 71 70 73 75 72 65 60 63 66 63 64 72 80 80 79 89 100 103 140 198 215 212 207 216 209 194 201 210 216 220 225 229 229 228 230 233 234 235 234 234 233 234 235 235 234 233 232 233 234
97 46 22 342 301 143 114 115 147 138 337 351 8 348 350 3 2 54 87 29 356 19 42 46 55 69 79 77 63 69 70 59 46 39 47 69 85 84 83 85 87 84 74 67 70 72 70 68 68 71 74 75 76 78 74 73 81 94 103 107 101 105 145 182 199 207 212 216 218 219 223 226 230 234 237 239 240 240 239 240 240 239 237 236 236 237
132 152 135 108 320 343 124 161 96 105 275 301 313 315 336 1 360 23 98 46 344 26 51 56 61 79 93 96 88 75 60 60 49 25 34 59 82 90 91 95 99 97 88 83 85 85 86 84 77 75 77 73 72 74 75 75 75 78 85 93 97 103 118 149 182 195 206 216 217 218 220 222 225 229 232 236 241 242 242 243 244 244 245 245 244 243
158 172 151 132 246 256 183 153 96 122 222 253 274 301 343 5 354 360 72 17 340 32 57 60 61 81 101 109 113 115 96 76 71 23 46 69 85 95 98 99 102 103 98 96 98 97 98 98 96 97 95 86 83 85 86 84 78 74 79 87 94 103 112 117 119 124 133 134 151 207 220 221 223 226 229 235 240 241 242 244 245 245 245 245 246 247
337 187 151 166 251 274 285 88 83 96 235 267 277 316 349 354 350 15 71 344 355 37 57 61 61 81 110 123 118 109 112 144 155 144 113 100 95 96 105 109 108 106 105 105 105 105 109 112 108 99 91 88 92 98 99 96 87 79 77 82 91 100 107 108 105 105 113 109 96 93 105 106 115 215 225 234 238 239 242 244 245 244 242 241 244 246
323 345 85 308 320 354 46 64 86 105 314 288 313 354 350 333 356 57 143 248 22 51 60 61 66 85 108 124 122 108 127 147 146 144 136 121 111 107 113 120 118 116 118 120 119 118 116 115 112 102 91 86 92 96 95 95 92 85 79 77 82 89 97 103 105 104 108 112 104 95 88 77 59 50 165 212 221 225 233 236 233 236 237 236 239 243
325 346 15 16 359 16 79 87 112 109 344 321 352 22 15 352 100 87 122 122 79 74 70 61 71 91 99 111 121 123 127 132 138 144 144 136 130 127 127 129 126 122 124 128 130 128 117 106 102 100 94 90 96 98 95 93 93 90 86 80 75 75 86 101 110 108 103 105 103 98 90 78 59 41 44 71 129 179 189 196 202 215 219 214 219 229
353 4 29 32 356 4 84 72 103 151 7 16 36 34 24 43 139 121 93 89 80 72 68 65 72 94 104 112 123 133 137 136 139 146 148 146 146 144 140 140 135 128 125 127 130 130 120 107 98 93 91 90 96 105 106 98 92 90 89 88 85 81 83 90 99 105 107 109 106 98 91 83 71 58 56 60 65 94 125 125 122 127 132 132 136 147
354 10 97 60 343 43 77 55 126 131 61 52 66 81 69 78 89 87 88 90 82 61 57 68 78 96 114 123 130 140 145 143 144 148 149 149 150 148 145 146 141 131 122 117 119 121 118 110 102 97 97 98 100 107 111 106 101 96 88 89 95 94 88 84 83 84 88 103 111 104 95 90 84 75 70 70 73 83 93 96 101 108 112 108 106 110
277 158 122 99 36 71 107 141 133 115 94 72 71 79 82 80 79 81 83 87 89 75 55 68 92 108 118 124 135 146 152 153 152 150 150 150 148 146 146 144 138 130 122 114 112 110 106 101 96 91 89 87 85 89 95 99 111 114 104 102 106 103 93 89 88 83 77 79 92 97 98 103 99 83 73 78 87 92 92 91 94 104 111 111 108 107
82 93 104 109 89 70 85 115 123 112 101 90 80 76 77 78 80 84 82 82 88 85 65 76 109 126 125 131 145 154 159 162 158 153 155 154 150 150 150 146 140 132 124 117 111 105 101 99 94 90 85 80 75 73 74 78 80 79 94 111 116 108 98 98 98 94 87 81 80 79 76 85 100 93 77 80 91 94 93 94 95 99 105 108 110 113
25 33 50 104 110 94 75 93 107 102 96 93 89 84 82 80 79 83 85 83 86 85 78 86 111 132 137 149 162 164 166 168 163 158 159 159 160 165 163 156 154 148 136 127 116 107 106 104 99 99 92 87 86 82 76 76 71 63 67 81 90 96 108 119 114 108 103 99 96 87 68 56 61 72 80 98 109 98 96 99 105 112 106 94 91 104
21 57 96 81 83 102 101 80 93 97 99 103 102 97 94 91 87 85 87 87 86 86 84 93 109 125 140 151 157 165 174 178 172 163 162 165 170 175 176 173 169 162 156 150 134 114 108 98 85 90 92 96 105 110 107 97 82 74 76 83 98 114 115 108 109 124 136 131 129 123 99 64 40 65 90 97 65 322 226 171 122 143 136 97 76 85
152 153 124 108 96 96 101 96 97 96 89 91 102 103 101 102 98 89 90 93 94 92 87 92 106 119 128 130 141 159 174 183 184 175 170 172 177 180 185 186 179 173 174 175 168 161 148 117 78 64 67 76 87 100 119 131 125 113 105 104 122 145 162 155 123 126 145 143 143 149 139 91 18 43 98 101 54 354 259 255 269 185 175 166 100 93
131 192 107 114 120 142 139 119 110 110 108 107 111 111 108 113 117 109 99 96 98 99 93 87 93 110 125 129 142 158 164 176 186 182 177 181 188 193 200 201 196 195 200 201 201 204 195 174 140 105 75 51 44 49 52 53 132 180 168 143 135 143 157 163 144 132 145 148 152 166 173 163 151 120 107 114 69 53 65 286 332 78 187 205 198 177
84 90 105 111 123 156 157 139 121 123 138 144 138 129 118 119 128 124 110 99 100 104 102 91 80 82 112 130 147 173 184 186 185 185 186 188 193 201 211 215 213 213 213 217 224 224 219 218 213 182 144 107 73 65 54 45 73 181 182 170 160 151 156 168 160 137 144 155 165 176 179 175 175 167 140 137 93 62 67 52 27 33 64 200 206 215
Height
1496 1502 1505 1506 1504 1500 1497 1493 1492 1491 1491 1492 1491 1498 1509 1514 1516 1512 1510 1510 1510 1519 1526 1524 1527 1528 1528 1528 1525 1527 1528 1528 1530 1530 1531 1533 1535 1537 1539 1541 1543 1545 1547 1548 1551 1552 1553 1556 1558 1558 1559 1561 1562 1564 1566 1567 1568 1569 1570 1571 1572 1573 1574 1575 1576 1578 1579 1580 1582 1583 1585 1586 1588 1588 1589 1590 1590 1591 1592 1593 1594 1595 1596 1597 1598 1598
1496 1504 1504 1499 1496 1493 1490 1488 1487 1489 1490 1489 1490 1498 1506 1508 1511 1508 1507 1510 1509 1519 1527 1524 1527 1529 1528 1528 1527 1528 1529 1529 1530 1530 1531 1532 1533 1536 1538 1539 1542 1544 1545 1547 1550 1551 1552 1555 1557 1558 1559 1560 1562 1564 1566 1567 1568 1569 1570 1571 1572 1573 1575 1576 1577 1578 1579 1581 1582 1583 1584 1586 1588 1588 1589 1590 1590 1591 1592 1593 1594 1595 1596 1597 1598 1598
1500 1503 1498 1491 1488 1488 1488 1485 1486 1488 1488 1489 1490 1495 1504 1506 1509 1512 1511 1510 1511 1519 1527 1526 1528 1530 1529 1531 1532 1532 1531 1529 1530 1531 1531 1532 1533 1535 1536 1538 1540 1542 1544 1545 1548 1550 1551 1554 1556 1558 1559 1559 1562 1564 1565 1566 1568 1569 1570 1571 1572 1574 1575 1576 1577 1579 1580 1582 1583 1584 1585 1586 1588 1588 1589 1590 1590 1591 1592 1592 1594 1595 1596 1597 1598 1598
1504 1499 1491 1486 1485 1486 1488 1486 1486 1488 1487 1489 1489 1493 1504 1505 1509 1520 1519 1514 1514 1517 1522 1526 1530 1531 1531 1534 1535 1535 1534 1530 1531 1532 1532 1532 1533 1534 1536 1536 1538 1541 1542 1544 1547 1549 1550 1552 1555 1557 1558 1559 1561 1563 1565 1566 1567 1569 1570 1571 1572 1574 1575 1576 1578 1579 1580 1582 1583 1584 1586 1586 1588 1589 1590 1590 1590 1591 1592 1592 1593 1594 1596 1597 1597 1598
1497 1488 1482 1483 1484 1485 1489 1488 1487 1491 1491 1488 1486 1490 1501 1502 1504 1512 1515 1515 1517 1518 1518 1524 1536 1536 1533 1538 1539 1534 1533 1532 1531 1531 1532 1532 1532 1534 1535 1535 1537 1539 1541 1542 1545 1547 1549 1551 1553 1556 1558 1558 1560 1562 1564 1565 1566 1568 1569 1570 1572 1573 1575 1576 1578 1579 1580 1582 1583 1584 1585 1586 1587 1589 1589 1590 1590 1591 1592 1592 1593 1594 1595 1596 1597 1598
1489 1480 1477 1482 1484 1484 1488 1489 1486 1489 1493 1490 1484 1482 1488 1494 1500 1507 1510 1515 1525 1530 1521 1521 1543 1546 1533 1535 1539 1534 1533 1533 1532 1531 1531 1532 1532 1532 1534 1535 1536 1537 1540 1542 1544 1546 1547 1549 1552 1554 1556 1557 1559 1560 1563 1564 1566 1567 1568 1570 1571 1573 1575 1576 1578 1579 1580 1581 1582 1583 1584 1585 1586 1587 1589 1589 1589 1590 1591 1592 1593 1594 1595 1596 1597 1597
1483 1477 1475 1481 1484 1484 1487 1489 1484 1483 1493 1495 1482 1474 1480 1489 1499 1508 1509 1514 1526 1529 1517 1512 1531 1545 1539 1534 1534 1533 1534 1533 1533 1532 1531 1531 1531 1531 1533 1534 1535 1536 1538 1541 1543 1545 1546 1548 1550 1553 1555 1556 1557 1559 1562 1563 1565 1566 1568 1569 1571 1573 1574 1576 1577 1578 1579 1580 1582 1583 1584 1585 1586 1586 1588 1589 1590 1590 1591 1592 1593 1593 1594 1595 1597 1597
1479 1479 1479 1480 1482 1484 1487 1488 1481 1479 1491 1493 1476 1472 1483 1490 1497 1504 1504 1507 1509 1511 1514 1511 1516 1535 1542 1533 1527 1529 1534 1535 1533 1532 1530 1529 1529 1530 1531 1532 1534 1535 1536 1539 1542 1543 1545 1546 1548 1551 1554 1555 1556 1559 1561 1562 1563 1565 1567 1569 1570 1572 1574 1575 1576 1577 1579 1580 1581 1583 1584 1585 1586 1587 1588 1589 1590 1590 1591 1592 1593 1594 1594 1595 1596 1597
1476 1480 1482 1481 1483 1485 1485 1483 1476 1476 1485 1483 1470 1472 1480 1483 1489 1494 1498 1501 1499 1508 1527 1521 1512 1530 1540 1529 1524 1527 1531 1534 1531 1528 1528 1527 1527 1528 1529 1530 1532 1533 1535 1537 1540 1542 1543 1545 1547 1550 1553 1554 1555 1558 1560 1561 1562 1564 1566 1568 1569 1571 1573 1574 1575 1577 1578 1580 1581 1583 1584 1585 1586 1587 1588 1589 1589 1591 1591 1592 1593 1594 1594 1595 1596 1597
1476 1478 1477 1477 1482 1483 1479 1474 1470 1474 1480 1475 1470 1473 1474 1476 1482 1487 1494 1500 1501 1514 1531 1521 1510 1527 1539 1530 1527 1531 1531 1528 1525 1524 1524 1524 1525 1526 1527 1528 1530 1532 1533 1535 1538 1540 1542 1543 1545 1549 1551 1554 1555 1557 1559 1560 1561 1563 1565 1567 1568 1570 1571 1573 1575 1576 1578 1579 1581 1582 1583 1584 1585 1586 1588 1588 1589 1591 1591 1592 1592 1593 1594 1595 1595 1596
1474 1473 1472 1472 1475 1475 1473 1471 1468 1471 1474 1471 1474 1478 1478 1479 1481 1485 1489 1492 1505 1515 1515 1510 1504 1514 1533 1533 1524 1522 1518 1512 1515 1520 1520 1521 1522 1524 1525 1526 1528 1530 1531 1533 1536 1538 1541 1542 1544 1547 1550 1552 1554 1555 1557 1558 1559 1562 1563 1565 1567 1569 1570 1572 1574 1575 1577 1578 1580 1581 1583 1584 1585 1586 1587 1588 1589 1590 1591 1591 1592 1593 1594 1594 1595 1596
1474 1476 1474 1470 1472 1472 1473 1474 1470 1469 1470 1474 1481 1484 1489 1490 1486 1492 1492 1492 1513 1519 1501 1496 1498 1505 1524 1528 1515 1507 1500 1499 1505 1510 1512 1515 1518 1520 1523 1524 1526 1528 1529 1531 1534 1536 1539 1541 1542 1545 1548 1550 1552 1553 1555 1556 1557 1560 1562 1564 1566 1567 1569 1571 1572 1574 1576 1578 1579 1580 1582 1583 1584 1585 1586 1587 1588 1589 1590 1591 1592 1593 1593 1594 1595 1596
1479 1478 1474 1472 1473 1473 1479 1482 1478 1474 1473 1479 1485 1489 1501 1508 1506 1512 1512 1507 1516 1513 1492 1486 1494 1505 1513 1507 1500 1498 1496 1496 1497 1499 1504 1509 1514 1517 1519 1522 1524 1525 1527 1528 1531 1534 1536 1539 1541 1543 1546 1548 1550 1551 1553 1553 1555 1558 1560 1562 1564 1565 1568 1569 1571 1573 1575 1576 1578 1579 1581 1582 1584 1584 1586 1587 1588 1589 1590 1591 1592 1592 1593 1594 1594 1595
1489 1481 1473 1476 1477 1473 1479 1487 1489 1485 1479 1483 1488 1493 1506 1517 1525 1529 1522 1516 1514 1503 1488 1479 1488 1506 1508 1496 1490 1491 1491 1492 1493 1496 1501 1505 1510 1514 1516 1519 1521 1522 1525 1526 1528 1531 1534 1536 1539 1541 1543 1546 1548 1550 1552 1552 1553 1556 1558 1560 1562 1564 1566 1568 1570 1572 1574 1575 1577 1579 1580 1581 1583 1584 1585 1586 1588 1589 1590 1591 1592 1592 1593 1594 1594 1595
1503 1498 1482 1479 1480 1475 1477 1481 1484 1483 1481 1482 1480 1486 1499 1506 1519 1526 1518 1516 1513 1502 1489 1482 1490 1507 1508 1495 1486 1484 1487 1490 1494 1496 1500 1504 1508 1511 1514 1516 1518 1520 1522 1524 1526 1529 1531 1533 1536 1539 1542 1544 1546 1548 1550 1551 1552 1554 1556 1559 1561 1563 1564 1566 1568 1570 1572 1574 1576 1577 1579 1580 1582 1583 1584 1586 1587 1588 1589 1590 1591 1592 1593 1593 1594 1594
1503 1502 1481 1472 1472 1472 1476 1474 1472 1480 1487 1482 1474 1484 1496 1493 1499 1508 1505 1501 1500 1500 1496 1492 1499 1501 1495 1488 1482 1482 1488 1489 1492 1496 1498 1503 1506 1509 1513 1514 1515 1517 1519 1522 1524 1526 1529 1531 1534 1536 1539 1542 1544 1546 1548 1549 1551 1552 1554 1557 1559 1561 1563 1565 1567 1569 1571 1573 1575 1576 1578 1579 1581 1582 1583 1585 1586 1587 1589 1590 1591 1592 1592 1593 1594 1594
1504 1501 1479 1471 1471 1468 1473 1472 1469 1480 1488 1483 1480 1488 1487 1479 1486 1500 1503 1492 1491 1505 1503 1498 1507 1503 1495 1495 1487 1485 1491 1489 1491 1495 1496 1500 1503 1506 1509 1511 1513 1515 1516 1519 1521 1524 1527 1529 1531 1534 1537 1539 1542 1544 1545 1547 1549 1551 1553 1555 1558 1560 1562 1564 1565 1567 1569 1571 1573 1575 1576 1578 1579 1581 1582 1584 1585 1586 1588 1589 1590 1591 1592 1592 1593 1594
1501 1502 1483 1475 1478 1469 1467 1471 1469 1470 1477 1482 1488 1485 1477 1478 1484 1494 1507 1506 1505 1514 1502 1495 1510 1511 1508 1508 1494 1488 1492 1491 1491 1493 1494 1498 1500 1503 1505 1508 1511 1513 1515 1518 1519 1522 1524 1526 1529 1531 1534 1537 1539 1542 1543 1545 1547 1549 1551 1553 1556 1558 1560 1562 1564 1566 1568 1569 1571 1573 1575 1577 1578 1580 1581 1583 1584 1585 1586 1588 1589 1590 1590 1591 1592 1593
1494 1503 1490 1475 1480 1474 1465 1472 1477 1472 1469 1475 1481 1476 1479 1495 1498 1496 1507 1514 1516 1517 1508 1506 1513 1509 1509 1508 1496 1492 1493 1491 1491 1491 1493 1495 1496 1500 1502 1505 1509 1511 1514 1516 1517 1520 1522 1524 1526 1528 1531 1534 1537 1540 1542 1543 1546 1548 1550 1552 1554 1556 1558 1561 1563 1564 1566 1568 1570 1572 1573 1575 1577 1579 1580 1582 1583 1584 1585 1586 1587 1588 1589 1590 1592 1592
1490 1504 1500 1480 1478 1478 1472 1477 1487 1484 1474 1471 1476 1476 1478 1488 1493 1492 1496 1501 1509 1515 1517 1526 1530 1519 1512 1505 1496 1495 1492 1490 1492 1490 1491 1493 1494 1498 1500 1503 1507 1509 1511 1514 1516 1518 1520 1522 1524 1526 1530 1532 1535 1539 1540 1542 1544 1546 1549 1551 1552 1555 1557 1559 1561 1563 1565 1566 1568 1570 1572 1574 1576 1577 1579 1580 1582 1583 1584 1585 1586 1587 1588 1589 1590 1591
1492 1503 1507 1493 1482 1484 1487 1486 1488 1490 1485 1481 1484 1486 1484 1481 1481 1486 1488 1486 1495 1506 1510 1523 1535 1527 1513 1503 1497 1494 1491 1490 1491 1491 1492 1493 1494 1497 1500 1502 1505 1507 1510 1512 1514 1517 1519 1521 1523 1525 1528 1530 1534 1538 1539 1540 1542 1544 1547 1549 1551 1553 1555 1557 1559 1561 1563 1565 1567 1568 1570 1572 1574 1576 1578 1579 1581 1582 1583 1584 1584 1585 1587 1587 1589 1590
1499 1503 1508 1504 1496 1494 1493 1485 1481 1483 1485 1484 1485 1484 1483 1483 1484 1493 1499 1487 1483 1493 1495 1506 1528 1527 1509 1501 1498 1493 1491 1491 1492 1493 1494 1495 1496 1498 1500 1502 1504 1506 1509 1511 1514 1517 1519 1521 1522 1524 1527 1529 1532 1536 1537 1538 1540 1542 1545 1547 1550 1552 1553 1555 1557 1559 1562 1563 1565 1567 1569 1571 1573 1574 1576 1578 1579 1580 1581 1582 1583 1584 1585 1586 1587 1588
1500 1502 1507 1507 1501 1497 1492 1481 1477 1478 1477 1477 1479 1477 1475 1479 1482 1493 1501 1491 1482 1485 1480 1489 1519 1525 1506 1499 1498 1493 1492 1493 1494 1496 1496 1497 1499 1499 1500 1503 1505 1507 1509 1511 1513 1514 1517 1521 1522 1523 1526 1528 1530 1533 1536 1537 1539 1541 1543 1546 1548 1550 1552 1554 1556 1558 1560 1562 1564 1565 1567 1569 1571 1573 1575 1576 1577 1579 1580 1581 1582 1583 1584 1584 1585 1586
1500 1504 1510 1510 1502 1494 1489 1482 1476 1475 1476 1481 1482 1476 1472 1475 1475 1478 1483 1481 1483 1489 1483 1492 1521 1523 1506 1499 1497 1494 1495 1496 1496 1498 1499 1501 1501 1500 1502 1503 1505 1508 1509 1511 1512 1512 1516 1520 1521 1522 1526 1529 1530 1531 1533 1535 1537 1540 1542 1544 1546 1548 1551 1553 1555 1557 1559 1561 1563 1564 1566 1568 1569 1571 1573 1574 1576 1577 1578 1580 1580 1581 1582 1583 1584 1585
1506 1508 1512 1518 1518 1513 1507 1501 1493 1486 1486 1491 1490 1481 1475 1473 1473 1474 1475 1476 1488 1496 1491 1504 1527 1523 1507 1502 1498 1495 1497 1497 1498 1499 1500 1502 1502 1501 1502 1503 1505 1508 1509 1511 1512 1513 1515 1519 1520 1521 1524 1527 1528 1529 1531 1533 1536 1538 1540 1542 1545 1547 1550 1552 1554 1555 1557 1559 1561 1563 1565 1567 1568 1570 1572 1573 1575 1576 1577 1578 1579 1580 1581 1582 1583 1583
1507 1509 1510 1521 1531 1534 1532 1525 1516 1506 1498 1496 1493 1487 1481 1478 1480 1482 1481 1484 1499 1504 1497 1508 1525 1520 1509 1504 1500 1497 1498 1498 1499 1500 1501 1502 1503 1503 1502 1503 1505 1506 1508 1510 1511 1514 1516 1519 1521 1521 1522 1525 1525 1527 1529 1532 1534 1537 1539 1541 1543 1545 1548 1551 1553 1554 1556 1558 1560 1562 1564 1566 1568 1569 1571 1572 1574 1575 1577 1578 1578 1578 1579 1580 1581 1582
1506 1507 1507 1513 1519 1523 1525 1519 1509 1505 1503 1499 1496 1490 1484 1482 1482 1484 1487 1492 1499 1504 1505 1508 1513 1515 1514 1509 1503 1499 1498 1499 1501 1502 1502 1502 1503 1505 1504 1505 1506 1507 1509 1510 1510 1513 1515 1517 1520 1521 1522 1523 1524 1526 1528 1530 1533 1535 1537 1539 1541 1544 1547 1549 1552 1554 1556 1558 1560 1562 1564 1565 1567 1569 1571 1572 1573 1575 1576 1577 1578 1578 1577 1578 1580 1580
1507 1510 1507 1505 1507 1506 1506 1505 1500 1499 1501 1500 1497 1492 1487 1485 1483 1486 1495 1497 1494 1505 1518 1511 1502 1511 1517 1510 1505 1501 1498 1500 1504 1505 1506 1505 1504 1506 1507 1507 1508 1508 1509 1510 1511 1513 1515 1517 1519 1520 1521 1522 1523 1525 1526 1528 1531 1533 1535 1538 1540 1542 1545 1548 1550 1553 1555 1558 1560 1563 1565 1566 1568 1569 1570 1572 1573 1574 1575 1576 1577 1577 1577 1577 1578 1579
1508 1512 1506 1503 1504 1501 1497 1498 1496 1497 1500 1499 1498 1495 1491 1489 1489 1491 1498 1498 1497 1512 1524 1514 1505 1514 1518 1511 1506 1502 1499 1502 1506 1507 1509 1509 1507 1506 1507 1509 1511 1510 1510 1509 1510 1512 1514 1517 1519 1521 1521 1521 1522 1523 1525 1527 1529 1530 1533 1536 1538 1540 1543 1546 1549 1551 1554 1556 1559 1561 1563 1565 1567 1568 1569 1570 1571 1573 1574 1575 1575 1575 1575 1576 1576 1577
1507 1510 1506 1504 1506 1501 1497 1496 1493 1495 1500 1500 1498 1497 1495 1495 1496 1498 1501 1499 1501 1511 1515 1512 1514 1521 1522 1519 1512 1505 1505 1508 1509 1508 1509 1511 1512 1509 1508 1510 1512 1513 1512 1510 1509 1510 1512 1515 1517 1519 1520 1520 1521 1522 1524 1527 1529 1530 1532 1534 1537 1539 1541 1544 1548 1550 1553 1555 1556 1558 1559 1561 1563 1565 1567 1568 1569 1570 1571 1572 1573 1573 1574 1574 1575 1576
1508 1510 1506 1505 1508 1506 1499 1495 1493 1494 1498 1500 1501 1500 1499 1501 1503 1505 1506 1504 1506 1512 1513 1515 1521 1522 1522 1523 1520 1515 1514 1513 1512 1511 1509 1510 1512 1512 1511 1512 1512 1514 1515 1515 1514 1513 1513 1515 1516 1516 1518 1520 1522 1524 1526 1529 1530 1531 1532 1533 1535 1538 1540 1543 1545 1548 1551 1553 1555 1557 1560 1562 1563 1564 1565 1565 1566 1567 1568 1570 1571 1572 1572 1573 1573 1574
1507 1510 1507 1507 1516 1514 1502 1497 1496 1492 1493 1501 1507 1507 1505 1507 1509 1510 1512 1511 1513 1517 1519 1521 1526 1525 1522 1523 1525 1525 1523 1520 1517 1515 1511 1511 1512 1513 1514 1514 1515 1517 1518 1518 1518 1516 1515 1516 1517 1517 1519 1521 1523 1525 1528 1531 1531 1532 1532 1533 1535 1537 1539 1542 1544 1546 1549 1551 1554 1557 1560 1562 1564 1564 1564 1564 1564 1565 1566 1568 1569 1570 1571 1571 1572 1572
1506 1510 1510 1512 1521 1517 1503 1498 1497 1495 1503 1515 1516 1511 1509 1509 1511 1513 1514 1514 1513 1516 1522 1526 1528 1526 1523 1522 1524 1526 1527 1526 1525 1520 1514 1513 1515 1516 1516 1516 1517 1519 1519 1521 1521 1519 1517 1517 1518 1520 1520 1521 1522 1524 1527 1529 1531 1532 1534 1535 1536 1537 1539 1542 1544 1546 1548 1550 1553 1556 1558 1560 1562 1562 1563 1562 1562 1562 1564 1565 1567 1568 1568 1569 1570 1570
1506 1509 1510 1512 1519 1518 1507 1500 1500 1509 1523 1525 1514 1506 1507 1510 1514 1518 1519 1518 1516 1516 1520 1523 1523 1522 1523 1523 1523 1526 1527 1528 1529 1525 1519 1516 1518 1519 1517 1516 1517 1518 1519 1520 1520 1519 1519 1519 1521 1523 1523 1523 1524 1525 1527 1529 1531 1534 1535 1536 1536 1536 1538 1540 1542 1545 1547 1549 1553 1556 1558 1560 1560 1560 1560 1559 1559 1560 1561 1562 1564 1565 1566 1566 1567 1568
1508 1510 1511 1510 1514 1517 1510 1508 1520 1531 1529 1518 1508 1505 1505 1508 1513 1517 1519 1518 1517 1517 1518 1520 1521 1523 1524 1524 1524 1526 1527 1528 1528 1527 1522 1520 1521 1521 1520 1519 1517 1518 1519 1520 1519 1519 1520 1522 1523 1524 1525 1526 1527 1527 1528 1530 1532 1533 1534 1534 1535 1535 1537 1539 1542 1544 1547 1550 1553 1555 1557 1557 1557 1557 1557 1556 1557 1557 1558 1559 1560 1561 1562 1563 1564 1565
1508 1511 1513 1512 1512 1516 1518 1523 1535 1537 1524 1512 1511 1509 1506 1508 1511 1515 1522 1523 1518 1518 1519 1519 1522 1523 1524 1525 1525 1526 1528 1530 1530 1529 1526 1525 1524 1523 1523 1523 1521 1521 1521 1521 1521 1521 1522 1524 1524 1525 1526 1527 1528 1528 1529 1530 1531 1531 1531 1532 1533 1534 1536 1539 1541 1543 1545 1548 1551 1552 1552 1552 1552 1553 1553 1554 1555 1555 1556 1557 1557 1557 1558 1560 1561 1562
1507 1510 1514 1516 1514 1516 1524 1527 1527 1531 1529 1521 1518 1515 1512 1513 1511 1514 1525 1528 1522 1519 1520 1521 1523 1525 1526 1527 1528 1528 1530 1532 1534 1532 1530 1530 1528 1526 1525 1526 1525 1524 1523 1523 1523 1524 1525 1527 1527 1527 1527 1527 1528 1528 1529 1530 1530 1529 1529 1530 1530 1532 1534 1536 1537 1539 1542 1544 1546 1547 1547 1547 1548 1549 1550 1551 1552 1553 1553 1553 1554 1554 1555 1556 1558 1559
1505 1508 1513 1519 1517 1513 1521 1526 1526 1536 1541 1531 1523 1519 1514 1514 1511 1510 1521 1530 1526 1523 1524 1524 1525 1527 1527 1528 1529 1529 1530 1534 1538 1537 1534 1533 1533 1531 1529 1528 1527 1527 1528 1528 1528 1527 1528 1530 1530 1530 1530 1529 1529 1529 1530 1530 1529 1528 1528 1529 1529 1530 1532 1534 1536 1538 1540 1542 1542 1542 1543 1544 1544 1545 1547 1548 1549 1550 1550 1551 1551 1551 1552 1553 1554 1555
1504 1505 1507 1516 1518 1515 1519 1527 1532 1539 1540 1530 1524 1519 1514 1516 1513 1510 1524 1537 1532 1526 1527 1526 1527 1528 1528 1528 1528 1527 1528 1535 1540 1539 1537 1536 1536 1534 1533 1532 1530 1531 1532 1532 1531 1531 1532 1533 1532 1532 1531 1531 1531 1531 1530 1530 1529 1528 1528 1529 1530 1531 1532 1534 1536 1539 1540 1541 1540 1540 1541 1541 1541 1542 1544 1545 1546 1547 1547 1547 1548 1548 1549 1550 1550 1551
1507 1507 1509 1516 1520 1516 1518 1526 1533 1537 1534 1526 1522 1519 1516 1515 1512 1517 1539 1547 1534 1528 1530 1528 1527 1529 1528 1528 1528 1526 1527 1532 1534 1535 1535 1536 1536 1536 1535 1535 1534 1534 1534 1534 1533 1532 1532 1532 1532 1531 1532 1532 1533 1532 1531 1530 1529 1528 1529 1530 1531 1532 1533 1536 1538 1539 1540 1540 1540 1540 1540 1540 1540 1541 1542 1543 1544 1544 1544 1544 1545 1545 1546 1547 1547 1548
1511 1511 1513 1517 1519 1517 1522 1531 1536 1535 1530 1523 1521 1519 1515 1514 1519 1534 1549 1545 1532 1531 1532 1528 1528 1530 1529 1528 1528 1527 1527 1528 1529 1532 1534 1534 1535 1535 1535 1535 1535 1535 1535 1535 1534 1533 1533 1532 1532 1531 1532 1532 1532 1531 1531 1530 1530 1530 1531 1532 1534 1536 1537 1538 1539 1540 1541 1541 1540 1541 1541 1541 1542 1542 1542 1543 1543 1543 1543 1543 1543 1544 1544 1544 1545 1545
1518 1517 1516 1518 1521 1520 1523 1531 1537 1537 1529 1522 1521 1519 1514 1520 1534 1542 1540 1534 1532 1533 1531 1529 1530 1530 1529 1529 1528 1528 1529 1530 1531 1533 1534 1534 1535 1535 1535 1536 1536 1535 1536 1536 1536 1535 1535 1535 1535 1535 1535 1534 1534 1533 1533 1533 1533 1534 1535 1536 1537 1539 1540 1540 1540 1541 1542 1542 1542 1542 1542 1542 1543 1544 1543 1543 1542 1542 1543 1543 1543 1543 1543 1543 1543 1544
1520 1521 1522 1522 1522 1521 1525 1533 1542 1543 1531 1521 1521 1521 1520 1527 1536 1535 1531 1531 1533 1531 1530 1531 1530 1530 1530 1531 1530 1530 1532 1532 1533 1534 1535 1535 1535 1535 1536 1536 1536 1536 1536 1536 1537 1537 1537 1537 1537 1537 1537 1537 1537 1536 1536 1536 1537 1538 1539 1539 1540 1541 1541 1541 1541 1542 1543 1543 1543 1543 1543 1544 1544 1544 1544 1543 1543 1543 1543 1542 1542 1542 1543 1543 1543 1543
1517 1520 1524 1523 1520 1524 1532 1537 1538 1535 1528 1522 1523 1526 1526 1528 1530 1529 1530 1532 1531 1530 1531 1531 1530 1531 1532 1531 1531 1533 1534 1534 1536 1536 1536 1537 1536 1536 1537 1537 1537 1538 1538 1538 1538 1539 1539 1539 1539 1538 1538 1538 1538 1538 1538 1538 1539 1540 1541 1542 1542 1542 1542 1542 1542 1543 1543 1544 1544 1544 1544 1544 1544 1545 1544 1544 1543 1543 1543 1542 1542 1542 1542 1542 1542 1542
1517 1516 1519 1520 1518 1521 1527 1529 1526 1524 1525 1525 1525 1526 1527 1528 1529 1529 1530 1530 1530 1532 1532 1530 1531 1532 1532 1532 1533 1534 1535 1536 1537 1538 1538 1539 1539 1538 1539 1538 1539 1539 1539 1539 1540 1540 1540 1540 1540 1539 1539 1538 1538 1538 1539 1539 1540 1541 1541 1542 1543 1543 1543 1543 1543 1542 1543 1544 1545 1545 1545 1545 1545 1545 1545 1545 1545 1544 1543 1543 1543 1542 1542 1542 1542 1543
1513 1512 1514 1517 1518 1519 1521 1522 1522 1523 1525 1526 1527 1527 1528 1529 1530 1530 1530 1530 1531 1532 1531 1531 1532 1532 1532 1533 1534 1534 1536 1537 1538 1539 1540 1540 1540 1541 1541 1541 1541 1541 1540 1540 1540 1540 1541 1541 1541 1540 1539 1538 1538 1539 1539 1540 1541 1542 1542 1543 1543 1543 1543 1543 1543 1543 1544 1545 1546 1546 1546 1546 1546 1546 1546 1545 1546 1546 1545 1544 1544 1544 1543 1543 1543 1543
1512 1512 1514 1515 1519 1523 1525 1523 1521 1523 1525 1526 1527 1529 1529 1530 1531 1531 1531 1532 1532 1532 1532 1532 1532 1532 1533 1534 1534 1534 1536 1537 1538 1539 1540 1541 1542 1542 1542 1542 1542 1542 1542 1541 1541 1541 1541 1541 1541 1540 1539 1538 1538 1539 1539 1540 1541 1542 1543 1543 1543 1543 1543 1543 1543 1543 1545 1546 1546 1546 1546 1547 1546 1546 1546 1546 1546 1546 1546 1546 1545 1545 1545 1545 1545 1545
1513 1514 1515 1516 1519 1523 1526 1524 1521 1523 1526 1526 1528 1529 1529 1530 1531 1531 1532 1532 1532 1532 1533 1532 1533 1533 1533 1533 1534 1535 1535 1536 1538 1539 1540 1541 1542 1542 1542 1543 1543 1542 1543 1543 1542 1543 1542 1542 1541 1540 1539 1539 1539 1539 1540 1541 1541 1542 1542 1543 1543 1543 1543 1543 1543 1543 1544 1545 1546 1546 1546 1547 1547 1546 1546 1546 1546 1547 1546 1546 1546 1546 1546 1547 1547 1547
1512 1513 1514 1517 1521 1524 1524 1523 1523 1525 1527 1527 1528 1529 1530 1530 1531 1532 1532 1533 1533 1533 1533 1533 1533 1534 1533 1534 1535 1535 1535 1536 1537 1538 1539 1541 1541 1541 1542 1542 1542 1543 1544 1544 1544 1544 1543 1542 1542 1541 1540 1540 1539 1539 1540 1541 1541 1542 1542 1543 1543 1543 1543 1543 1543 1543 1544 1544 1544 1545 1546 1547 1547 1547 1546 1546 1546 1546 1546 1546 1546 1547 1548 1549 1548 1547
1513 1514 1514 1517 1524 1526 1524 1523 1523 1526 1528 1529 1528 1529 1530 1531 1531 1532 1532 1533 1533 1534 1534 1534 1534 1534 1534 1534 1535 1535 1536 1536 1537 1538 1539 1540 1540 1541 1541 1542 1542 1544 1544 1544 1545 1544 1543 1543 1543 1542 1542 1541 1540 1540 1541 1541 1541 1542 1542 1543 1543 1543 1543 1542 1542 1543 1544 1544 1544 1544 1545 1546 1547 1547 1546 1546 1546 1546 1546 1547 1548 1548 1549 1549 1548 1547
1513 1514 1513 1516 1522 1523 1522 1522 1523 1524 1526 1527 1528 1529 1530 1530 1531 1531 1532 1533 1534 1534 1534 1534 1534 1534 1534 1535 1535 1536 1536 1536 1537 1538 1538 1539 1540 1540 1541 1541 1542 1543 1544 1544 1545 1544 1544 1544 1544 1543 1543 1543 1542 1542 1541 1541 1542 1542 1542 1543 1543 1544 1543 1542 1541 1542 1542 1543 1544 1544 1544 1546 1547 1548 1548 1547 1546 1546 1547 1548 1549 1549 1549 1549 1548 1548